• In Deutschland
  • Länderverzeichnis
  • Für 7 Tage
  • Wassertemperatur
  • Satellitenkarten
  • Wetterkarte
  • Widgets
  • user-avatar
    Anmelden

    Stündliche Wetter Zduńska Wola

    Heute, 23 Oktober, Dienstag

    Zeit Temperatur Niederschläge Wind Luftdruck Luftfeuchtigkeit
    00:00 +5°C° 0 mm 4 m/S 752 mmHg 85%
    01:00 +4°C° 0 mm 3 m/S 752 mmHg 87%
    02:00 +4°C° 0 mm 4 m/S 751 mmHg 87%
    03:00 +4°C° 0 mm 4 m/S 751 mmHg 87%
    04:00 +3°C° 0 mm 4 m/S 750 mmHg 88%
    05:00 +3°C° 0 mm 5 m/S 749 mmHg 85%
    06:00 +3°C° 0 mm 6 m/S 749 mmHg 83%
    07:00 +3°C° 0 mm 6 m/S 748 mmHg 81%
    08:00 +4°C° 0 mm 7 m/S 747 mmHg 76%
    09:00 +5°C° 0 mm 8 m/S 745 mmHg 71%
    10:00 +6°C° 0 mm 9 m/S 744 mmHg 66%
    11:00 +6°C° 0.9 mm 10 m/S 743 mmHg 69%
    12:00 +5°C° 0.9 mm 10 m/S 742 mmHg 72%
    13:00 +4°C° 0.9 mm 11 m/S 740 mmHg 75%
    14:00 +6°C° 0.8 mm 11 m/S 739 mmHg 76%
    15:00 +6°C° 0.8 mm 11 m/S 738 mmHg 78%
    16:00 +5°C° 0.8 mm 12 m/S 737 mmHg 79%
    17:00 +7°C° 1.2 mm 11 m/S 736 mmHg 81%
    18:00 +8°C° 1.2 mm 11 m/S 735 mmHg 83%
    19:00 +8°C° 1.2 mm 11 m/S 735 mmHg 85%
    20:00 +8°C° 1.4 mm 10 m/S 734 mmHg 84%
    21:00 +8°C° 1.4 mm 9 m/S 734 mmHg 82%
    22:00 +9°C° 1.4 mm 8 m/S 734 mmHg 81%
    23:00 +7°C° 0.3 mm 9 m/S 733 mmHg 80%

    Morgen, 24 Oktober, Mittwoch

    Zeit Temperatur Niederschläge Wind Luftdruck Luftfeuchtigkeit
    00:00 +7°C° 0.3 mm 9 m/S 733 mmHg 79%
    01:00 +6°C° 0.3 mm 9 m/S 733 mmHg 77%
    02:00 +6°C° 0.3 mm 10 m/S 733 mmHg 75%
    03:00 +6°C° 0.3 mm 10 m/S 733 mmHg 73%
    04:00 +4°C° 0.3 mm 11 m/S 733 mmHg 70%
    05:00 +5°C° 0.1 mm 10 m/S 734 mmHg 69%
    06:00 +3°C° 0.1 mm 9 m/S 734 mmHg 67%
    07:00 +3°C° 0.1 mm 9 m/S 735 mmHg 65%
    08:00 +3°C° 0.1 mm 10 m/S 736 mmHg 59%
    09:00 +4°C° 0.1 mm 11 m/S 737 mmHg 52%
    10:00 +4°C° 0.1 mm 12 m/S 737 mmHg 46%
    11:00 +6°C° 0 mm 11 m/S 738 mmHg 45%
    12:00 +6°C° 0 mm 11 m/S 738 mmHg 45%
    13:00 +6°C° 0 mm 11 m/S 738 mmHg 44%
    14:00 +6°C° 0 mm 10 m/S 739 mmHg 45%
    15:00 +6°C° 0 mm 9 m/S 740 mmHg 45%
    16:00 +5°C° 0 mm 8 m/S 740 mmHg 46%
    17:00 +5°C° 0 mm 8 m/S 741 mmHg 48%
    18:00 +4°C° 0 mm 8 m/S 741 mmHg 50%
    19:00 +4°C° 0 mm 7 m/S 742 mmHg 52%
    20:00 +3°C° 0 mm 7 m/S 742 mmHg 54%
    21:00 +3°C° 0 mm 7 m/S 743 mmHg 57%
    22:00 +3°C° 0 mm 6 m/S 743 mmHg 60%
    23:00 +3°C° 0 mm 6 m/S 743 mmHg 64%

    übermorgen, 25 Oktober, Donnerstag

    Zeit Temperatur Niederschläge Wind Luftdruck Luftfeuchtigkeit
    00:00 +2°C° 0 mm 6 m/S 743 mmHg 67%
    01:00 +2°C° 0 mm 6 m/S 743 mmHg 71%
    02:00 +2°C° 0 mm 6 m/S 743 mmHg 72%
    03:00 +2°C° 0 mm 5 m/S 743 mmHg 73%
    04:00 +2°C° 0 mm 5 m/S 742 mmHg 74%
    05:00 +2°C° 0.4 mm 5 m/S 741 mmHg 78%
    06:00 +3°C° 0.4 mm 5 m/S 741 mmHg 83%
    07:00 +3°C° 0.4 mm 5 m/S 740 mmHg 87%
    08:00 +5°C° 1.1 mm 6 m/S 739 mmHg 88%
    09:00 +6°C° 1.1 mm 7 m/S 739 mmHg 89%
    10:00 +9°C° 1.1 mm 8 m/S 738 mmHg 90%
    11:00 +8°C° 0.6 mm 9 m/S 738 mmHg 88%
    12:00 +8°C° 0.6 mm 9 m/S 737 mmHg 86%
    13:00 +9°C° 0.6 mm 10 m/S 737 mmHg 85%
    14:00 +10°C° 0.4 mm 9 m/S 737 mmHg 84%
    15:00 +8°C° 0.4 mm 9 m/S 737 mmHg 83%
    16:00 +8°C° 0.4 mm 9 m/S 737 mmHg 82%
    17:00 +9°C° 0.3 mm 8 m/S 738 mmHg 80%
    18:00 +7°C° 0.3 mm 8 m/S 738 mmHg 78%
    19:00 +8°C° 0.3 mm 7 m/S 739 mmHg 75%
    20:00 +6°C° 0 mm 7 m/S 739 mmHg 76%
    21:00 +7°C° 0 mm 6 m/S 739 mmHg 77%
    22:00 +5°C° 0 mm 6 m/S 740 mmHg 79%
    23:00 +5°C° 0 mm 6 m/S 740 mmHg 80%

    26 Oktober, Freitag

    Zeit Temperatur Niederschläge Wind Luftdruck Luftfeuchtigkeit
    00:00 +4°C° 0 mm 6 m/S 740 mmHg 81%
    01:00 +5°C° 0 mm 5 m/S 741 mmHg 83%
    02:00 +5°C° 0 mm 5 m/S 741 mmHg 84%
    03:00 +5°C° 0 mm 5 m/S 741 mmHg 86%
    04:00 +5°C° 0 mm 5 m/S 741 mmHg 87%
    05:00 +3°C° 0 mm 5 m/S 741 mmHg 87%
    06:00 +3°C° 0 mm 5 m/S 741 mmHg 88%
    07:00 +4°C° 0 mm 4 m/S 741 mmHg 88%
    08:00 +5°C° 0 mm 4 m/S 741 mmHg 82%
    09:00 +6°C° 0 mm 5 m/S 741 mmHg 75%
    10:00 +7°C° 0 mm 5 m/S 741 mmHg 69%
    11:00 +8°C° 0 mm 5 m/S 741 mmHg 67%
    12:00 +9°C° 0 mm 5 m/S 741 mmHg 66%
    13:00 +10°C° 0 mm 5 m/S 740 mmHg 64%
    14:00 +10°C° 0 mm 4 m/S 740 mmHg 68%
    15:00 +10°C° 0 mm 4 m/S 740 mmHg 73%
    16:00 +10°C° 0 mm 3 m/S 739 mmHg 77%
    17:00 +10°C° 0 mm 3 m/S 739 mmHg 78%
    18:00 +8°C° 0 mm 4 m/S 739 mmHg 80%
    19:00 +8°C° 0 mm 4 m/S 739 mmHg 82%
    20:00 +8°C° 0 mm 5 m/S 738 mmHg 81%
    21:00 +8°C° 0 mm 5 m/S 738 mmHg 81%
    22:00 +8°C° 0 mm 5 m/S 738 mmHg 81%
    23:00 +7°C° 0 mm 5 m/S 737 mmHg 82%

    27 Oktober, Samstag

    Zeit Temperatur Niederschläge Wind Luftdruck Luftfeuchtigkeit
    00:00 +7°C° 0 mm 5 m/S 737 mmHg 83%
    01:00 +7°C° 0 mm 5 m/S 737 mmHg 84%
    02:00 +7°C° 0 mm 5 m/S 737 mmHg 83%
    03:00 +7°C° 0 mm 5 m/S 737 mmHg 82%
    04:00 +7°C° 0 mm 5 m/S 736 mmHg 81%
    05:00 +7°C° 0 mm 6 m/S 737 mmHg 81%
    06:00 +7°C° 0 mm 6 m/S 737 mmHg 82%
    07:00 +7°C° 0 mm 6 m/S 737 mmHg 83%
    08:00 +7°C° 0 mm 6 m/S 737 mmHg 78%
    09:00 +8°C° 0 mm 7 m/S 738 mmHg 73%
    10:00 +8°C° 0 mm 7 m/S 738 mmHg 68%
    11:00 +9°C° 0 mm 7 m/S 738 mmHg 64%
    12:00 +9°C° 0 mm 7 m/S 738 mmHg 60%
    13:00 +9°C° 0 mm 6 m/S 738 mmHg 56%
    14:00 +8°C° 0 mm 5 m/S 739 mmHg 58%
    15:00 +8°C° 0 mm 4 m/S 739 mmHg 59%
    16:00 +9°C° 0 mm 3 m/S 739 mmHg 60%
    17:00 +8°C° 0 mm 3 m/S 739 mmHg 62%
    18:00 +7°C° 0 mm 2 m/S 740 mmHg 65%
    19:00 +7°C° 0 mm 2 m/S 740 mmHg 67%
    20:00 +7°C° 0 mm 2 m/S 740 mmHg 68%
    21:00 +6°C° 0 mm 2 m/S 740 mmHg 69%
    22:00 +7°C° 0 mm 1 m/S 741 mmHg 70%
    23:00 +7°C° 0 mm 1 m/S 741 mmHg 71%

    28 Oktober, Sonntag

    Zeit Temperatur Niederschläge Wind Luftdruck Luftfeuchtigkeit
    00:00 +7°C° 0 mm 1 m/S 741 mmHg 71%
    01:00 +7°C° 0 mm 1 m/S 741 mmHg 72%
    02:00 +7°C° 0 mm 1 m/S 741 mmHg 72%
    03:00 +7°C° 0 mm 1 m/S 741 mmHg 73%
    04:00 +6°C° 0 mm 1 m/S 740 mmHg 74%
    05:00 +6°C° 0.1 mm 1 m/S 740 mmHg 75%
    06:00 +5°C° 0.1 mm 2 m/S 740 mmHg 75%
    07:00 +5°C° 0.1 mm 2 m/S 740 mmHg 76%
    08:00 +5°C° 0.3 mm 2 m/S 740 mmHg 76%
    09:00 +5°C° 0.3 mm 3 m/S 740 mmHg 75%
    10:00 +5°C° 0.3 mm 4 m/S 740 mmHg 74%
    11:00 +5°C° 0.5 mm 4 m/S 740 mmHg 75%
    12:00 +5°C° 0.5 mm 4 m/S 740 mmHg 75%
    13:00 +5°C° 0.5 mm 5 m/S 740 mmHg 76%
    14:00 +5°C° 0.6 mm 5 m/S 740 mmHg 77%
    15:00 +3°C° 0.6 mm 6 m/S 740 mmHg 79%
    16:00 +3°C° 0.6 mm 7 m/S 739 mmHg 81%
    17:00 +3°C° 0.8 mm 7 m/S 739 mmHg 82%
    18:00 +3°C° 0.8 mm 7 m/S 739 mmHg 83%
    19:00 +2°C° 0.8 mm 8 m/S 739 mmHg 84%
    20:00 +1°C° 2.3 mm 8 m/S 738 mmHg 84%
    21:00 +1°C° 2.3 mm 8 m/S 738 mmHg 85%
    22:00 +1°C° 2.3 mm 8 m/S 737 mmHg 86%
    23:00 +1°C° 2 mm 8 m/S 736 mmHg 87%

    29 Oktober, Montag

    Zeit Temperatur Niederschläge Wind Luftdruck Luftfeuchtigkeit
    00:00 0°C° 2 mm 8 m/S 736 mmHg 88%
    01:00 0°C° 2 mm 8 m/S 735 mmHg 89%
    02:00 0°C° 1.4 mm 8 m/S 734 mmHg 90%
    03:00 0°C° 1.4 mm 8 m/S 734 mmHg 91%
    04:00 0°C° 1.4 mm 7 m/S 733 mmHg 91%
    05:00 0°C° 1.5 mm 7 m/S 733 mmHg 92%
    06:00 +2°C° 1.5 mm 6 m/S 732 mmHg 93%
    07:00 +2°C° 1.5 mm 5 m/S 732 mmHg 93%
    08:00 +2°C° 0.7 mm 5 m/S 732 mmHg 93%
    09:00 +3°C° 0.7 mm 5 m/S 731 mmHg 93%
    10:00 +4°C° 0.7 mm 4 m/S 731 mmHg 93%
    11:00 +5°C° 0.6 mm 4 m/S 731 mmHg 94%
    12:00 +5°C° 0.6 mm 4 m/S 730 mmHg 94%
    13:00 +7°C° 0.6 mm 3 m/S 730 mmHg 94%
    14:00 +7°C° 0.4 mm 3 m/S 730 mmHg 95%
    15:00 +8°C° 0.4 mm 3 m/S 730 mmHg 95%
    16:00 +8°C° 0.4 mm 2 m/S 729 mmHg 96%
    17:00 +8°C° 0.2 mm 2 m/S 729 mmHg 95%
    18:00 +8°C° 0.2 mm 2 m/S 729 mmHg 95%
    19:00 +8°C° 0.2 mm 2 m/S 729 mmHg 95%
    20:00 +8°C° 0 mm 2 m/S 729 mmHg 95%
    21:00 +7°C° 0 mm 2 m/S 729 mmHg 95%
    22:00 +8°C° 0 mm 1 m/S 729 mmHg 95%
    23:00 +7°C° 0 mm 2 m/S 729 mmHg 95%
    Mehr zeigen